When you browse on this site, cookies collect data to enhance your experience and personalize the content and advertising you see.
Visit our Privacy Policy to learn more. By continuing to use the site, you agree to this use of cookies and data.
  • In Portugal
  • List of Countries
  • For 7 days
  • Water Temperature
  • Weather Map
  • Weather Widgets
  • user-avatar
    Login

    Hourly Weather Staraya Vedernya

    Today, 3 June, Wednesday

    Time Temperature Precipitation Wind Pressure Humidity
    00:00 +8°C° 0 mm 3 mps 748 mmHg 93%
    01:00 +8°C° 0 mm 3 mps 748 mmHg 93%
    02:00 +8°C° 0 mm 3 mps 747 mmHg 94%
    03:00 +9°C° 0.1 mm 3 mps 747 mmHg 94%
    04:00 +8°C° 0.1 mm 4 mps 746 mmHg 95%
    05:00 +8°C° 0.1 mm 4 mps 746 mmHg 95%
    06:00 +8°C° 0.9 mm 4 mps 746 mmHg 95%
    07:00 +10°C° 0.9 mm 4 mps 746 mmHg 96%
    08:00 +10°C° 0.9 mm 3 mps 746 mmHg 96%
    09:00 +11°C° 0.8 mm 4 mps 746 mmHg 96%
    10:00 +11°C° 0.8 mm 4 mps 746 mmHg 96%
    11:00 +12°C° 0.8 mm 4 mps 746 mmHg 96%
    12:00 +12°C° 0.3 mm 4 mps 746 mmHg 95%
    13:00 +12°C° 0.3 mm 4 mps 745 mmHg 94%
    14:00 +13°C° 0.3 mm 4 mps 745 mmHg 93%
    15:00 +13°C° 0.3 mm 4 mps 745 mmHg 94%
    16:00 +13°C° 0.3 mm 4 mps 744 mmHg 95%
    17:00 +13°C° 0.3 mm 4 mps 744 mmHg 95%
    18:00 +13°C° 0.1 mm 4 mps 744 mmHg 95%
    19:00 +13°C° 0.1 mm 4 mps 744 mmHg 95%
    20:00 +13°C° 0.1 mm 4 mps 743 mmHg 95%
    21:00 +13°C° 0.4 mm 4 mps 743 mmHg 95%
    22:00 +13°C° 0.4 mm 4 mps 742 mmHg 96%
    23:00 +12°C° 0.4 mm 4 mps 741 mmHg 96%

    Tomorrow, 4 June, Thursday

    Time Temperature Precipitation Wind Pressure Humidity
    00:00 +12°C° 3.1 mm 4 mps 740 mmHg 97%
    01:00 +12°C° 3.1 mm 3 mps 739 mmHg 97%
    02:00 +12°C° 3.1 mm 3 mps 739 mmHg 98%
    03:00 +12°C° 3.1 mm 3 mps 738 mmHg 98%
    04:00 +13°C° 3.1 mm 2 mps 737 mmHg 98%
    05:00 +13°C° 3.1 mm 2 mps 736 mmHg 99%
    06:00 +13°C° 1 mm 2 mps 736 mmHg 98%
    07:00 +12°C° 1 mm 3 mps 736 mmHg 98%
    08:00 +13°C° 1 mm 3 mps 737 mmHg 97%
    09:00 +14°C° 0 mm 3 mps 737 mmHg 92%
    10:00 +15°C° 0 mm 4 mps 737 mmHg 87%
    11:00 +17°C° 0 mm 4 mps 738 mmHg 82%
    12:00 +18°C° 0.4 mm 4 mps 738 mmHg 80%
    13:00 +19°C° 0.4 mm 4 mps 739 mmHg 78%
    14:00 +19°C° 0.4 mm 4 mps 740 mmHg 75%
    15:00 +19°C° 0.3 mm 3 mps 740 mmHg 75%
    16:00 +19°C° 0.3 mm 3 mps 740 mmHg 74%
    17:00 +19°C° 0.3 mm 2 mps 740 mmHg 74%
    18:00 +18°C° 0.5 mm 2 mps 740 mmHg 80%
    19:00 +16°C° 0.5 mm 2 mps 740 mmHg 85%
    20:00 +14°C° 0.5 mm 2 mps 740 mmHg 91%
    21:00 +14°C° 0 mm 2 mps 740 mmHg 92%
    22:00 +13°C° 0 mm 2 mps 740 mmHg 93%
    23:00 +12°C° 0 mm 2 mps 741 mmHg 94%

    Day after tomorrow, 5 June, Friday

    Time Temperature Precipitation Wind Pressure Humidity
    00:00 +12°C° 0 mm 2 mps 741 mmHg 94%
    01:00 +10°C° 0 mm 2 mps 741 mmHg 95%
    02:00 +10°C° 0 mm 2 mps 741 mmHg 95%
    03:00 +10°C° 0 mm 2 mps 742 mmHg 95%
    04:00 +12°C° 0 mm 2 mps 742 mmHg 94%
    05:00 +12°C° 0 mm 2 mps 742 mmHg 94%
    06:00 +13°C° 0.1 mm 3 mps 742 mmHg 89%
    07:00 +16°C° 0.1 mm 3 mps 742 mmHg 83%
    08:00 +17°C° 0.1 mm 4 mps 742 mmHg 78%
    09:00 +18°C° 1 mm 4 mps 742 mmHg 79%
    10:00 +18°C° 1 mm 4 mps 742 mmHg 79%
    11:00 +18°C° 1 mm 4 mps 742 mmHg 80%
    12:00 +18°C° 0.8 mm 4 mps 742 mmHg 78%
    13:00 +19°C° 0.8 mm 4 mps 742 mmHg 77%
    14:00 +19°C° 0.8 mm 4 mps 742 mmHg 76%
    15:00 +18°C° 0.6 mm 4 mps 742 mmHg 78%
    16:00 +18°C° 0.6 mm 4 mps 742 mmHg 80%
    17:00 +18°C° 0.6 mm 3 mps 742 mmHg 82%
    18:00 +17°C° 0 mm 3 mps 742 mmHg 84%
    19:00 +14°C° 0 mm 3 mps 742 mmHg 87%
    20:00 +13°C° 0 mm 3 mps 742 mmHg 90%
    21:00 +13°C° 0 mm 3 mps 742 mmHg 92%
    22:00 +12°C° 0 mm 3 mps 743 mmHg 94%
    23:00 +12°C° 0 mm 3 mps 743 mmHg 97%

    6 June, Saturday

    Time Temperature Precipitation Wind Pressure Humidity
    00:00 +11°C° 0 mm 3 mps 743 mmHg 97%
    01:00 +11°C° 0 mm 3 mps 743 mmHg 98%
    02:00 +12°C° 0 mm 2 mps 743 mmHg 98%
    03:00 +12°C° 0 mm 3 mps 743 mmHg 97%
    04:00 +12°C° 0 mm 3 mps 743 mmHg 97%
    05:00 +13°C° 0 mm 3 mps 744 mmHg 96%
    06:00 +14°C° 0 mm 3 mps 744 mmHg 94%
    07:00 +14°C° 0 mm 3 mps 744 mmHg 92%
    08:00 +14°C° 0 mm 3 mps 744 mmHg 90%
    09:00 +16°C° 0 mm 3 mps 744 mmHg 88%
    10:00 +17°C° 0 mm 3 mps 745 mmHg 85%
    11:00 +17°C° 0 mm 3 mps 745 mmHg 83%
    12:00 +19°C° 0 mm 3 mps 745 mmHg 80%
    13:00 +20°C° 0 mm 4 mps 745 mmHg 78%
    14:00 +22°C° 0 mm 4 mps 745 mmHg 75%
    15:00 +21°C° 1.1 mm 3 mps 744 mmHg 80%
    16:00 +20°C° 1.1 mm 3 mps 744 mmHg 85%
    17:00 +20°C° 1.1 mm 2 mps 744 mmHg 90%
    18:00 +19°C° 0.3 mm 3 mps 744 mmHg 91%
    19:00 +19°C° 0.3 mm 3 mps 744 mmHg 92%
    20:00 +19°C° 0.3 mm 3 mps 744 mmHg 92%
    21:00 +18°C° 0.6 mm 3 mps 745 mmHg 93%
    22:00 +18°C° 0.6 mm 3 mps 745 mmHg 94%
    23:00 +18°C° 0.6 mm 3 mps 746 mmHg 95%

    7 June, Sunday

    Time Temperature Precipitation Wind Pressure Humidity
    00:00 +17°C° 0 mm 3 mps 746 mmHg 96%
    01:00 +16°C° 0 mm 2 mps 747 mmHg 97%
    02:00 +16°C° 0 mm 2 mps 747 mmHg 97%
    03:00 +16°C° 0 mm 2 mps 748 mmHg 97%
    04:00 +16°C° 0 mm 2 mps 748 mmHg 96%
    05:00 +16°C° 0 mm 2 mps 749 mmHg 96%
    06:00 +18°C° 0 mm 2 mps 749 mmHg 89%
    07:00 +19°C° 0 mm 2 mps 750 mmHg 83%
    08:00 +21°C° 0 mm 2 mps 750 mmHg 77%
    09:00 +23°C° 0 mm 2 mps 751 mmHg 69%
    10:00 +24°C° 0 mm 2 mps 751 mmHg 61%
    11:00 +26°C° 0 mm 2 mps 752 mmHg 54%
    12:00 +26°C° 0 mm 2 mps 752 mmHg 51%
    13:00 +27°C° 0 mm 1 mps 751 mmHg 49%
    14:00 +27°C° 0 mm 1 mps 751 mmHg 47%
    15:00 +27°C° 0 mm 1 mps 751 mmHg 51%
    16:00 +27°C° 0 mm 1 mps 751 mmHg 54%
    17:00 +26°C° 0 mm 1 mps 751 mmHg 58%
    18:00 +24°C° 0 mm 1 mps 751 mmHg 67%
    19:00 +22°C° 0 mm 1 mps 751 mmHg 76%
    20:00 +20°C° 0 mm 2 mps 751 mmHg 84%
    21:00 +19°C° 0 mm 2 mps 751 mmHg 88%
    22:00 +18°C° 0 mm 2 mps 751 mmHg 91%
    23:00 +18°C° 0 mm 2 mps 751 mmHg 94%

    8 June, Monday

    Time Temperature Precipitation Wind Pressure Humidity
    00:00 +17°C° 0 mm 2 mps 751 mmHg 95%
    01:00 +17°C° 0 mm 2 mps 751 mmHg 96%
    02:00 +17°C° 0 mm 2 mps 751 mmHg 97%
    03:00 +18°C° 0 mm 2 mps 751 mmHg 95%
    04:00 +18°C° 0 mm 2 mps 751 mmHg 94%
    05:00 +19°C° 0 mm 2 mps 751 mmHg 93%
    06:00 +20°C° 0 mm 3 mps 751 mmHg 87%
    07:00 +21°C° 0 mm 3 mps 751 mmHg 80%
    08:00 +24°C° 0 mm 3 mps 751 mmHg 74%
    09:00 +25°C° 0 mm 3 mps 751 mmHg 68%
    10:00 +26°C° 0 mm 4 mps 751 mmHg 63%
    11:00 +27°C° 0 mm 4 mps 751 mmHg 58%
    12:00 +27°C° 0.2 mm 4 mps 751 mmHg 59%
    13:00 +27°C° 0.2 mm 4 mps 751 mmHg 60%
    14:00 +27°C° 0.2 mm 5 mps 751 mmHg 62%
    15:00 +27°C° 0.8 mm 4 mps 750 mmHg 67%
    16:00 +26°C° 0.8 mm 3 mps 750 mmHg 72%
    17:00 +25°C° 0.8 mm 3 mps 750 mmHg 78%
    18:00 +24°C° 0 mm 3 mps 750 mmHg 82%
    19:00 +23°C° 0 mm 2 mps 750 mmHg 86%
    20:00 +21°C° 0 mm 2 mps 750 mmHg 90%
    21:00 +20°C° 0 mm 2 mps 751 mmHg 92%
    22:00 +20°C° 0 mm 2 mps 751 mmHg 93%
    23:00 +19°C° 0 mm 2 mps 751 mmHg 95%
    Show more